Location: Moy Burn
(57.3833°N, 4.0667°W)
Time: 09:20:06
(UTC+00:00)

Cosmos 2344 - Pass Details

Date: 08 August 2020
Orbit: 1247 x 2995 km, 63.3° (Epoch: 18 September)

Event Time Altitude Azimuth Distance (km) Brightness Sun altitude
Rises 23:05:10 0° 296° (WNW) 4,322 7.1 -15.1°
Reaches altitude 10° 23:07:44 10° 298° (WNW) 3,442 6.5 -15.2°
Maximum altitude 23:16:05 73° 24° (NNE) 1,695 4.3 -15.6°
Drops below altitude 10° 23:27:25 10° 110° (ESE) 4,576 6.1 -16.0°
Sets 23:31:23 0° 112° (ESE) 5,826 6.7 -16.1°
